EN

Hourly Weather Dzialyn

Today, 28 October, Wednesday

Time Temperature Precipitation Wind Pressure Humidity
00:00 +8°C° 0 mm 3 mps 748 mmHg 83%
01:00 +7°C° 0 mm 3 mps 749 mmHg 81%
02:00 +7°C° 0 mm 3 mps 748 mmHg 82%
03:00 +7°C° 0 mm 3 mps 748 mmHg 82%
04:00 +6°C° 0 mm 4 mps 748 mmHg 83%
05:00 +6°C° 0 mm 4 mps 748 mmHg 82%
06:00 +6°C° 0 mm 4 mps 748 mmHg 81%
07:00 +5°C° 0 mm 4 mps 748 mmHg 80%
08:00 +7°C° 0 mm 5 mps 748 mmHg 74%
09:00 +8°C° 0 mm 5 mps 748 mmHg 68%
10:00 +10°C° 0 mm 6 mps 749 mmHg 62%
11:00 +11°C° 0 mm 6 mps 748 mmHg 59%
12:00 +11°C° 0 mm 6 mps 748 mmHg 57%
13:00 +13°C° 0 mm 5 mps 748 mmHg 55%
14:00 +12°C° 0 mm 5 mps 748 mmHg 59%
15:00 +11°C° 0 mm 4 mps 748 mmHg 62%
16:00 +11°C° 0 mm 4 mps 748 mmHg 66%
17:00 +10°C° 0 mm 4 mps 748 mmHg 68%
18:00 +10°C° 0 mm 4 mps 748 mmHg 69%
19:00 +10°C° 0 mm 4 mps 748 mmHg 71%
20:00 +9°C° 0 mm 5 mps 748 mmHg 74%
21:00 +8°C° 0 mm 5 mps 749 mmHg 77%
22:00 +8°C° 0 mm 5 mps 749 mmHg 80%
23:00 +8°C° 0 mm 4 mps 749 mmHg 81%

Tomorrow, 29 October, Thursday

Time Temperature Precipitation Wind Pressure Humidity
00:00 +8°C° 0 mm 4 mps 749 mmHg 83%
01:00 +7°C° 0 mm 4 mps 749 mmHg 85%
02:00 +7°C° 0 mm 4 mps 749 mmHg 86%
03:00 +7°C° 0 mm 4 mps 749 mmHg 87%
04:00 +6°C° 0 mm 4 mps 748 mmHg 88%
05:00 +6°C° 0 mm 4 mps 748 mmHg 87%
06:00 +7°C° 0 mm 4 mps 748 mmHg 86%
07:00 +7°C° 0 mm 4 mps 748 mmHg 84%
08:00 +8°C° 0 mm 5 mps 748 mmHg 80%
09:00 +9°C° 0 mm 6 mps 748 mmHg 76%
10:00 +10°C° 0 mm 6 mps 748 mmHg 72%
11:00 +11°C° 0.2 mm 6 mps 748 mmHg 72%
12:00 +11°C° 0.2 mm 6 mps 748 mmHg 71%
13:00 +12°C° 0.2 mm 5 mps 748 mmHg 71%
14:00 +10°C° 0.9 mm 5 mps 748 mmHg 74%
15:00 +10°C° 0.9 mm 4 mps 748 mmHg 76%
16:00 +8°C° 0.9 mm 4 mps 749 mmHg 79%
17:00 +8°C° 0 mm 4 mps 749 mmHg 80%
18:00 +7°C° 0 mm 4 mps 750 mmHg 82%
19:00 +7°C° 0 mm 4 mps 750 mmHg 83%
20:00 +6°C° 0 mm 4 mps 751 mmHg 84%
21:00 +6°C° 0 mm 4 mps 751 mmHg 85%
22:00 +6°C° 0 mm 4 mps 752 mmHg 85%
23:00 +5°C° 0 mm 4 mps 752 mmHg 87%

Day after tomorrow, 30 October, Friday

Time Temperature Precipitation Wind Pressure Humidity
00:00 +5°C° 0 mm 4 mps 752 mmHg 88%
01:00 +5°C° 0 mm 5 mps 752 mmHg 90%
02:00 +5°C° 0 mm 4 mps 753 mmHg 91%
03:00 +4°C° 0 mm 4 mps 753 mmHg 91%
04:00 +4°C° 0 mm 3 mps 753 mmHg 92%
05:00 +4°C° 0 mm 3 mps 753 mmHg 91%
06:00 +4°C° 0 mm 3 mps 753 mmHg 91%
07:00 +4°C° 0 mm 3 mps 753 mmHg 90%
08:00 +5°C° 0.1 mm 3 mps 752 mmHg 88%
09:00 +6°C° 0.1 mm 4 mps 752 mmHg 87%
10:00 +6°C° 0.1 mm 4 mps 752 mmHg 85%
11:00 +6°C° 0.8 mm 4 mps 751 mmHg 88%
12:00 +6°C° 0.8 mm 4 mps 751 mmHg 91%
13:00 +6°C° 0.8 mm 5 mps 751 mmHg 94%
14:00 +7°C° 1.6 mm 4 mps 750 mmHg 95%
15:00 +7°C° 1.6 mm 4 mps 750 mmHg 96%
16:00 +9°C° 1.6 mm 3 mps 750 mmHg 97%
17:00 +9°C° 1 mm 3 mps 750 mmHg 97%
18:00 +10°C° 1 mm 4 mps 750 mmHg 96%
19:00 +10°C° 1 mm 4 mps 751 mmHg 96%
20:00 +10°C° 0.5 mm 4 mps 751 mmHg 96%
21:00 +10°C° 0.5 mm 3 mps 751 mmHg 96%
22:00 +10°C° 0.5 mm 3 mps 752 mmHg 96%
23:00 +9°C° 0.2 mm 3 mps 752 mmHg 96%

31 October, Saturday

Time Temperature Precipitation Wind Pressure Humidity
00:00 +9°C° 0.2 mm 3 mps 753 mmHg 95%
01:00 +9°C° 0.2 mm 2 mps 753 mmHg 95%
02:00 +8°C° 0 mm 2 mps 754 mmHg 94%
03:00 +8°C° 0 mm 2 mps 754 mmHg 93%
04:00 +8°C° 0 mm 2 mps 755 mmHg 92%
05:00 +8°C° 0 mm 2 mps 755 mmHg 92%
06:00 +7°C° 0 mm 2 mps 755 mmHg 92%
07:00 +7°C° 0 mm 3 mps 756 mmHg 92%
08:00 +8°C° 0 mm 3 mps 756 mmHg 89%
09:00 +8°C° 0 mm 3 mps 757 mmHg 85%
10:00 +9°C° 0 mm 3 mps 757 mmHg 82%
11:00 +10°C° 0 mm 3 mps 757 mmHg 79%
12:00 +10°C° 0 mm 3 mps 757 mmHg 77%
13:00 +11°C° 0 mm 3 mps 757 mmHg 74%
14:00 +11°C° 0 mm 3 mps 757 mmHg 76%
15:00 +11°C° 0 mm 3 mps 757 mmHg 78%
16:00 +10°C° 0 mm 2 mps 757 mmHg 80%
17:00 +10°C° 0 mm 3 mps 757 mmHg 81%
18:00 +9°C° 0 mm 3 mps 757 mmHg 83%
19:00 +9°C° 0 mm 3 mps 757 mmHg 84%
20:00 +8°C° 0 mm 3 mps 757 mmHg 84%
21:00 +7°C° 0 mm 4 mps 757 mmHg 84%
22:00 +7°C° 0 mm 4 mps 757 mmHg 84%
23:00 +7°C° 0 mm 4 mps 757 mmHg 83%

1 November, Sunday

Time Temperature Precipitation Wind Pressure Humidity
00:00 +7°C° 0 mm 4 mps 757 mmHg 82%
01:00 +6°C° 0 mm 4 mps 757 mmHg 80%
02:00 +6°C° 0 mm 5 mps 757 mmHg 80%
03:00 +6°C° 0 mm 5 mps 756 mmHg 79%
04:00 +5°C° 0 mm 5 mps 756 mmHg 79%
05:00 +5°C° 0 mm 5 mps 756 mmHg 79%
06:00 +5°C° 0 mm 5 mps 755 mmHg 80%
07:00 +5°C° 0 mm 5 mps 755 mmHg 80%
08:00 +6°C° 0 mm 5 mps 755 mmHg 78%
09:00 +7°C° 0 mm 5 mps 755 mmHg 77%
10:00 +8°C° 0 mm 5 mps 755 mmHg 75%
11:00 +10°C° 0 mm 5 mps 754 mmHg 74%
12:00 +12°C° 0 mm 5 mps 754 mmHg 73%
13:00 +13°C° 0 mm 6 mps 754 mmHg 72%
14:00 +13°C° 0 mm 5 mps 754 mmHg 75%
15:00 +12°C° 0 mm 5 mps 753 mmHg 78%
16:00 +12°C° 0 mm 5 mps 753 mmHg 80%
17:00 +10°C° 0 mm 5 mps 753 mmHg 83%
18:00 +10°C° 0 mm 5 mps 753 mmHg 85%
19:00 +10°C° 0 mm 4 mps 753 mmHg 87%
20:00 +10°C° 0 mm 4 mps 753 mmHg 88%
21:00 +10°C° 0 mm 4 mps 753 mmHg 90%
22:00 +8°C° 0 mm 4 mps 753 mmHg 91%
23:00 +8°C° 0 mm 4 mps 752 mmHg 90%

2 November, Monday

Time Temperature Precipitation Wind Pressure Humidity
00:00 +8°C° 0 mm 4 mps 752 mmHg 89%
01:00 +8°C° 0 mm 4 mps 752 mmHg 88%
02:00 +8°C° 0 mm 4 mps 752 mmHg 86%
03:00 +9°C° 0 mm 5 mps 752 mmHg 85%
04:00 +9°C° 0 mm 5 mps 752 mmHg 83%
05:00 +9°C° 0 mm 5 mps 752 mmHg 83%
06:00 +9°C° 0 mm 5 mps 752 mmHg 82%
07:00 +9°C° 0 mm 5 mps 752 mmHg 82%
08:00 +10°C° 0 mm 5 mps 752 mmHg 78%
09:00 +12°C° 0 mm 5 mps 752 mmHg 74%
10:00 +13°C° 0 mm 5 mps 752 mmHg 70%
11:00 +14°C° 0 mm 5 mps 752 mmHg 68%
12:00 +15°C° 0 mm 5 mps 752 mmHg 66%
13:00 +16°C° 0 mm 5 mps 753 mmHg 64%
14:00 +15°C° 0 mm 5 mps 752 mmHg 67%
15:00 +15°C° 0 mm 4 mps 752 mmHg 69%
16:00 +14°C° 0 mm 4 mps 752 mmHg 72%
17:00 +14°C° 0 mm 4 mps 752 mmHg 72%
18:00 +13°C° 0 mm 4 mps 753 mmHg 73%
19:00 +13°C° 0 mm 4 mps 753 mmHg 73%
20:00 +12°C° 0 mm 4 mps 753 mmHg 74%
21:00 +12°C° 0 mm 4 mps 753 mmHg 74%
22:00 +12°C° 0 mm 4 mps 753 mmHg 74%
23:00 +12°C° 0 mm 3 mps 753 mmHg 74%
Show more